Total_Precipitation_Accumulation
0.73 0.76 0.65 0.62 0.55 0.55 0.53 0.41 0.38 0.35 0.25 0.23 0.19 0.17 0.18 0.16 0.18 0.24 0.35 0.41 0.42 0.52 0.64 0.69 0.64 0.58 0.56 0.53 0.52 0.51 0.47 0.45 0.42 0.38 0.36 0.34 0.31 0.30 0.28 0.27 0.26 0.24 0.21
0.94 0.97 0.90 0.88 0.82 0.82 0.86 0.71 0.60 0.58 0.48 0.44 0.39 0.36 0.31 0.27 0.32 0.38 0.49 0.51 0.47 0.50 0.63 0.74 0.76 0.77 0.78 0.72 0.66 0.58 0.55 0.55 0.52 0.50 0.49 0.45 0.42 0.38 0.37 0.35 0.32 0.29 0.27
1.09 1.13 1.21 1.18 1.12 1.12 1.17 1.15 1.00 0.92 0.82 0.76 0.66 0.51 0.46 0.44 0.46 0.53 0.61 0.68 0.62 0.58 0.58 0.65 0.72 0.80 0.83 0.85 0.85 0.79 0.72 0.66 0.62 0.60 0.57 0.54 0.53 0.50 0.48 0.45 0.41 0.38 0.38
1.23 1.40 1.46 1.42 1.39 1.39 1.47 1.50 1.42 1.24 1.11 0.99 0.92 0.76 0.68 0.65 0.61 0.67 0.77 0.90 0.99 0.93 0.82 0.74 0.74 0.78 0.83 0.87 0.91 0.89 0.83 0.77 0.73 0.71 0.68 0.64 0.63 0.61 0.55 0.51 0.48 0.46 0.43
1.55 1.64 1.74 1.80 1.80 1.86 1.88 1.80 1.77 1.54 1.44 1.34 1.19 1.08 0.91 0.86 0.83 0.75 0.81 0.85 0.91 0.94 0.93 0.85 0.77 0.76 0.82 0.90 0.90 0.91 0.92 0.89 0.86 0.79 0.73 0.68 0.69 0.69 0.64 0.60 0.58 0.53 0.48
2.17 2.25 2.21 2.22 2.23 2.29 2.20 2.16 2.12 1.91 1.71 1.63 1.33 1.18 1.08 1.00 0.94 0.88 0.82 0.77 0.76 0.74 0.75 0.78 0.82 0.76 0.76 0.79 0.85 0.94 0.99 1.01 0.98 0.91 0.88 0.85 0.81 0.75 0.67 0.64 0.61 0.57 0.57
3.18 3.19 3.09 2.96 2.81 2.67 2.52 2.42 2.25 2.09 1.90 1.76 1.59 1.30 1.01 0.83 0.83 0.80 0.78 0.77 0.73 0.69 0.69 0.72 0.69 0.64 0.66 0.71 0.73 0.77 0.85 0.95 1.02 1.03 1.02 0.94 0.82 0.74 0.69 0.66 0.64 0.61 0.61
4.12 4.21 4.09 3.86 3.66 3.29 2.85 2.52 2.30 2.17 1.98 1.89 1.75 1.62 1.23 0.91 0.71 0.60 0.63 0.66 0.66 0.67 0.64 0.61 0.58 0.59 0.59 0.62 0.64 0.66 0.68 0.78 0.93 1.05 1.08 1.01 0.90 0.83 0.77 0.74 0.73 0.71 0.69
4.36 4.52 4.50 4.21 3.80 3.25 2.75 2.55 2.42 2.25 2.09 1.97 1.80 1.75 1.49 1.21 0.89 0.65 0.56 0.51 0.51 0.49 0.48 0.49 0.48 0.51 0.51 0.50 0.51 0.57 0.62 0.67 0.80 0.91 0.91 0.84 0.81 0.80 0.80 0.78 0.77 0.76 0.76
4.31 4.21 4.08 3.69 3.22 2.85 2.56 2.44 2.38 2.18 2.10 1.95 1.83 1.58 1.37 1.20 1.02 0.80 0.61 0.49 0.42 0.37 0.34 0.35 0.36 0.38 0.39 0.39 0.43 0.50 0.54 0.56 0.62 0.65 0.66 0.65 0.66 0.71 0.77 0.81 0.81 0.81 0.83
3.66 3.32 2.99 2.74 2.58 2.36 2.14 2.01 1.94 1.86 1.72 1.59 1.55 1.46 1.33 1.16 0.96 0.78 0.67 0.57 0.51 0.45 0.39 0.36 0.35 0.33 0.32 0.34 0.38 0.49 0.53 0.49 0.48 0.47 0.45 0.46 0.48 0.52 0.56 0.63 0.71 0.78 0.82
2.95 2.58 2.39 2.17 2.00 1.80 1.57 1.42 1.35 1.36 1.38 1.40 1.41 1.36 1.27 1.18 1.04 0.92 0.80 0.67 0.61 0.57 0.48 0.42 0.38 0.36 0.35 0.38 0.44 0.55 0.45 0.41 0.40 0.39 0.38 0.37 0.39 0.43 0.47 0.54 0.64 0.73 0.83
2.65 2.23 1.90 1.73 1.52 1.33 1.21 1.12 1.07 1.06 1.09 1.14 1.22 1.24 1.20 1.15 1.07 1.02 0.97 0.88 0.80 0.72 0.61 0.54 0.49 0.45 0.43 0.43 0.48 0.54 0.40 0.37 0.34 0.32 0.32 0.33 0.35 0.38 0.42 0.47 0.52 0.58 0.65
2.11 1.81 1.40 1.12 0.95 0.84 0.78 0.77 0.80 0.81 0.83 0.88 0.95 1.00 1.01 1.00 0.99 0.99 0.99 0.99 1.02 0.94 0.76 0.68 0.63 0.57 0.52 0.49 0.55 0.53 0.36 0.39 0.34 0.31 0.29 0.28 0.28 0.30 0.33 0.36 0.38 0.41 0.43
1.41 1.18 0.94 0.77 0.68 0.63 0.59 0.56 0.57 0.57 0.59 0.65 0.73 0.80 0.87 0.88 0.86 0.88 0.91 0.92 0.94 0.97 0.90 0.76 0.68 0.60 0.53 0.48 0.53 0.38 0.29 0.34 0.30 0.26 0.25 0.24 0.24 0.25 0.27 0.29 0.31 0.34 0.36
0.82 0.74 0.64 0.58 0.52 0.48 0.46 0.46 0.45 0.43 0.47 0.49 0.53 0.59 0.68 0.74 0.78 0.82 0.85 0.83 0.76 0.75 0.78 0.69 0.61 0.55 0.50 0.43 0.43 0.29 0.26 0.29 0.23 0.21 0.21 0.20 0.20 0.19 0.20 0.22 0.26 0.29 0.29
0.58 0.55 0.49 0.45 0.43 0.41 0.40 0.39 0.40 0.37 0.40 0.46 0.51 0.54 0.60 0.63 0.67 0.68 0.67 0.68 0.70 0.71 0.75 0.72 0.62 0.54 0.48 0.42 0.35 0.28 0.25 0.24 0.22 0.21 0.21 0.19 0.17 0.16 0.17 0.20 0.21 0.22 0.22
0.48 0.46 0.43 0.41 0.40 0.41 0.40 0.38 0.37 0.38 0.38 0.39 0.42 0.42 0.46 0.48 0.51 0.52 0.53 0.54 0.56 0.59 0.62 0.64 0.58 0.48 0.41 0.34 0.29 0.27 0.21 0.17 0.18 0.17 0.17 0.16 0.16 0.16 0.16 0.15 0.14 0.13 0.12
0.45 0.42 0.39 0.39 0.39 0.40 0.39 0.38 0.36 0.35 0.34 0.33 0.32 0.30 0.31 0.32 0.34 0.34 0.35 0.36 0.36 0.37 0.40 0.43 0.41 0.35 0.30 0.26 0.27 0.25 0.22 0.24 0.16 0.15 0.14 0.13 0.12 0.11 0.10 0.08 0.08 0.08 0.07
0.43 0.44 0.42 0.40 0.37 0.34 0.31 0.29 0.27 0.26 0.25 0.25 0.23 0.20 0.20 0.20 0.22 0.25 0.25 0.26 0.28 0.30 0.32 0.34 0.31 0.28 0.24 0.21 0.29 0.29 0.24 0.23 0.19 0.12 0.12 0.11 0.09 0.07 0.06 0.06 0.06 0.05 0.05
0.35 0.33 0.30 0.27 0.23 0.19 0.17 0.16 0.16 0.17 0.17 0.17 0.16 0.15 0.15 0.18 0.19 0.20 0.20 0.22 0.27 0.30 0.30 0.30 0.27 0.24 0.21 0.25 0.29 0.28 0.25 0.21 0.17 0.14 0.19 0.20 0.21 0.22 0.22 0.16 0.10 0.06 0.04
0.25 0.19 0.15 0.15 0.14 0.13 0.12 0.13 0.13 0.14 0.14 0.15 0.15 0.15 0.15 0.15 0.15 0.15 0.17 0.21 0.28 0.29 0.27 0.28 0.27 0.28 0.27 0.29 0.31 0.29 0.29 0.31 0.31 0.24 0.28 0.26 0.25 0.28 0.28 0.27 0.18 0.10 0.06
0.20 0.17 0.13 0.10 0.09 0.10 0.11 0.11 0.12 0.13 0.14 0.15 0.14 0.15 0.13 0.11 0.13 0.14 0.14 0.15 0.16 0.15 0.18 0.26 0.32 0.33 0.35 0.38 0.40 0.38 0.39 0.43 0.41 0.34 0.41 0.39 0.28 0.28 0.22 0.18 0.15 0.11 0.09
0.21 0.20 0.16 0.14 0.11 0.08 0.07 0.08 0.08 0.10 0.12 0.12 0.11 0.12 0.13 0.14 0.13 0.12 0.10 0.11 0.14 0.17 0.16 0.19 0.28 0.30 0.29 0.31 0.35 0.39 0.43 0.46 0.47 0.44 0.49 0.49 0.31 0.27 0.22 0.27 0.23 0.15 0.11
0.18 0.16 0.16 0.16 0.16 0.12 0.06 0.05 0.05 0.08 0.10 0.10 0.10 0.09 0.10 0.13 0.12 0.11 0.10 0.15 0.21 0.24 0.13 0.11 0.16 0.23 0.25 0.28 0.30 0.36 0.52 0.65 0.61 0.46 0.47 0.52 0.41 0.34 0.29 0.31 0.27 0.19 0.15
0.16 0.13 0.11 0.13 0.14 0.13 0.06 0.05 0.06 0.07 0.09 0.09 0.09 0.11 0.09 0.09 0.08 0.07 0.10 0.17 0.25 0.26 0.24 0.28 0.36 0.39 0.42 0.49 0.45 0.48 0.62 0.69 0.67 0.63 0.52 0.54 0.51 0.47 0.44 0.32 0.30 0.29 0.28